Tracking 20621 objects as of 30-Mar-2020
HD Live streaming from Space Station
objects crossing your sky now

KALAMSAT-V2/PSLV

Track KALAMSAT-V2/PSLV now!
10-day predictions
KALAMSAT-V2/PSLV is classified as:


NORAD ID: 43948
Int'l Code: 2019-006B
Perigee: 450.4 km
Apogee: 455.5 km
Inclination: 98.8 °
Period: 93.5 minutes
Semi major axis: 6823 km
RCS: Unknown
Launch date: January 24, 2019
Source: India (IND)
Launch site: SRIHARIKOTA (SRI)

Uplink (MHz):
Downlink (MHz): 436.500
Beacon (MHz):
Mode:
Call sign:
Status: Unknown

aabbcc
Your satellite tracking list
Your tracking list is empty




NASA's NSSDC Master Catalog

Two Line Element Set (TLE):
1 43948U 19006B   20089.99073972 +.00001072 +00000-0 +29648-4 0  9992
2 43948 098.8328 096.0667 0003719 188.9072 171.2107 15.40090752066180
Source of the keplerian elements: AFSPC